x

8773037 - Seadrift, Tx (sdrt2) Weather Station

7:48am - Wed 16th Aug 2017 All times are CDT. -5 hours from GMT.

  • Wind
    18mph, 22mph gusts
  • Sea Temp 84°f
  • Air Temp 85°f
  • Sea Pressure 1013.5mb
  • 8773037 - Seadrift, Tx
  • 8773037 - Seadrift, Tx

More Historic Weather Station data

Upgrade to MSW Pro to gain access to the past 30 days of data for over 8000 Wavebouys and Weather Stations around the globe.

Join

Comparision Forecast

View Surf forecast
   
Wed 08/16 7:48am 18 22 mph 1013.5mb 84f 85f
7:42am 16 21 mph 1013.5mb 84f 85f
7:36am 18 23 mph 1013.3mb 84f 85f
7:30am 17 25 mph 1013.2mb 84f 85f
7:24am 21 24 mph 1013.2mb 84f 85f
7:18am 22 25 mph 1013.2mb 84f 85f
7:12am 21 25 mph 1013mb 84f 85f
7:06am 21 25 mph 1012.9mb 85f 85f
7:00am 23 26 mph 1012.8mb 85f 85f
6:54am 22 25 mph 1012.8mb 85f 85f
6:48am 20 25 mph 1012.8mb 85f 85f
6:42am 20 24 mph 1012.8mb 85f 85f
6:36am 23 25 mph 1012.9mb 85f 85f
6:30am 22 25 mph 1012.8mb 85f 85f
6:24am 18 25 mph 1012.8mb 85f 85f
6:18am 20 25 mph 1012.6mb 85f 85f
6:12am 18 23 mph 1012.6mb 85f 85f
6:06am 21 24 mph 1012.5mb 85f 85f
6:00am 20 24 mph 1012.5mb 85f 85f
5:54am 21 24 mph 1012.5mb 85f 85f
5:48am 21 24 mph 1012.5mb 85f 85f
5:42am 20 26 mph 1012.5mb 85f 85f
5:36am 22 25 mph 1012.4mb 85f 85f
5:30am 21 24 mph 1012.4mb 85f 85f
5:24am 23 25 mph 1012.4mb 85f 85f
5:18am 21 26 mph 1012.5mb 85f 85f
5:12am 22 24 mph 1012.4mb 85f 85f
5:06am 22 25 mph 1012.5mb 85f 85f
5:00am 22 26 mph 1012.5mb 85f 86f
4:54am 22 25 mph 1012.4mb 85f 85f
4:48am 21 23 mph 1012.5mb 85f 85f
4:42am 21 25 mph 1012.5mb 85f 86f
4:36am 22 25 mph 1012.5mb 85f 86f
4:30am 20 26 mph 1012.7mb 85f 86f
4:24am 22 25 mph 1012.7mb 85f 86f
4:18am 22 25 mph 1012.6mb 85f 86f
4:12am 23 26 mph 1012.5mb 85f 85f
4:06am 20 24 mph 1012.5mb 85f 86f
4:00am 20 24 mph 1012.4mb 85f 85f
3:54am 18 25 mph 1012.4mb 85f 86f
3:48am 22 26 mph 1012.3mb 85f 86f
3:42am 22 24 mph 1012.3mb 85f 86f
3:36am 21 24 mph 1012.2mb 86f 86f
3:30am 17 22 mph 1012.2mb 86f 85f
3:24am 20 28 mph 1012.2mb 86f 86f
3:18am 22 25 mph 1012.2mb 86f 86f
3:12am 20 26 mph 1012.3mb 86f 85f
3:06am 22 26 mph 1012.2mb 86f 86f
3:00am 21 25 mph 1012.2mb 86f 85f
2:54am 21 25 mph 1012.3mb 86f 86f
2:48am 18 24 mph 1012.3mb 86f 86f
2:42am 18 22 mph 1012.4mb 86f 86f
2:36am 18 26 mph 1012.3mb 86f 86f
2:30am 21 26 mph 1012.1mb 86f 86f
2:24am 21 25 mph 1012.1mb 86f 85f
2:18am 17 25 mph 1012.1mb 86f 86f
2:12am 21 26 mph 1012.1mb 86f 86f
2:06am 21 24 mph 1012mb 86f 85f
2:00am 22 25 mph 1012mb 86f 86f
1:54am 16 22 mph 1012mb 86f 85f
1:48am 18 24 mph 1012mb 86f 85f
1:42am 21 23 mph 1012.2mb 86f 86f
1:36am 17 22 mph 1012.3mb 86f 85f
1:30am 21 23 mph 1012.4mb 86f 86f
1:24am 18 22 mph 1012.6mb 86f 86f
1:18am 22 25 mph 1012.6mb 86f 86f
1:12am 20 23 mph 1012.8mb 86f 86f
1:06am 20 22 mph 1013mb 86f 86f
1:00am 17 22 mph 1013.2mb 86f 86f
12:54am 20 23 mph 1013.2mb 87f 86f
12:48am 21 25 mph 1013.1mb 87f 86f
12:42am 16 18 mph 1013.1mb 87f 86f
12:36am 17 20 mph 1013.1mb 87f 86f
12:30am 15 21 mph 1013.1mb 87f 86f
12:24am 14 18 mph 1013.2mb 87f 86f
12:18am 13 20 mph 1013.3mb 87f 86f
12:12am 16 21 mph 1013.2mb 87f 86f
12:06am 15 18 mph 1013.2mb 87f 86f
12:00am 15 18 mph 1013.3mb 87f 86f
Tue 08/15 11:54pm 17 21 mph 1013.2mb 87f 86f
11:48pm 15 17 mph 1013mb 87f 86f
11:42pm 16 23 mph 1012.9mb 87f 86f
11:36pm 16 21 mph 1012.8mb 87f 86f
11:30pm 16 20 mph 1012.9mb 87f 86f
11:24pm 16 20 mph 1012.9mb 87f 86f
11:18pm 14 20 mph 1012.8mb 87f 86f
11:12pm 14 17 mph 1012.8mb 87f 86f
11:06pm 15 18 mph 1012.8mb 87f 86f
11:00pm 14 18 mph 1012.8mb 88f 86f
10:54pm 13 18 mph 1012.8mb 88f 86f
10:48pm 17 21 mph 1012.7mb 88f 86f
10:42pm 16 18 mph 1012.7mb 88f 86f
10:36pm 16 20 mph 1012.6mb 88f 86f
10:30pm  -  mph 1012.5mb 88f 86f
10:24pm  -  mph 1012.6mb 88f 86f
10:18pm 18 22 mph 1012.4mb 88f 86f
10:12pm 17 22 mph 1012.2mb 88f 86f
10:06pm 20 22 mph 1012.1mb 88f 86f
10:00pm 14 21 mph 1012.1mb 88f 86f
9:54pm 14 22 mph 1011.9mb 88f 86f
9:48pm 14 17 mph 1011.7mb 88f 86f
9:42pm 15 21 mph 1011.6mb 88f 86f
9:36pm 18 22 mph 1011.3mb 88f 86f
9:30pm 16 20 mph 1011.2mb 88f 86f
9:24pm 16 20 mph 1011.2mb 89f 86f
9:18pm 15 20 mph 1011mb 89f 86f
9:12pm 14 17 mph 1010.9mb 89f 86f
9:06pm 15 20 mph 1010.8mb 89f 86f
9:00pm 15 18 mph 1010.8mb 89f 86f
8:54pm 14 21 mph 1010.7mb 89f 86f
8:48pm 16 20 mph 1010.7mb 89f 86f
8:42pm 15 18 mph 1010.8mb 89f 86f
8:36pm 15 20 mph 1010.8mb 89f 86f
8:30pm 14 17 mph 1010.8mb 89f 86f
8:24pm 15 18 mph 1010.7mb 89f 86f
8:18pm 14 20 mph 1010.6mb 89f 86f
8:12pm 18 21 mph 1010.5mb 89f 87f
8:06pm 18 22 mph 1010.4mb 89f 86f
8:00pm 18 23 mph 1010.4mb 89f 86f
7:54pm 15 22 mph 1010.4mb 89f 86f
7:48pm 18 21 mph 1010.3mb 89f 86f
7:42pm 17 22 mph 1010.4mb 89f 87f
7:36pm 16 22 mph 1010.3mb 89f 87f
7:30pm 18 24 mph 1010.3mb 89f 87f
7:24pm 18 23 mph 1010.2mb 90f 87f
7:18pm 20 23 mph 1010.2mb 90f 87f
7:12pm 22 24 mph 1010.2mb 90f 87f
7:06pm 20 23 mph 1010.2mb 90f 87f
7:00pm 20 23 mph 1010.2mb 90f 87f
6:54pm 21 23 mph 1010mb 90f 87f
6:48pm 21 23 mph 1010.1mb 90f 87f
6:42pm 18 23 mph 1010.1mb 90f 87f
6:36pm 21 23 mph 1010mb 90f 88f
6:30pm 20 24 mph 1010mb 90f 88f
6:24pm 18 24 mph 1009.9mb 90f 88f
6:18pm 20 24 mph 1009.9mb 90f 87f
6:12pm 21 25 mph 1009.9mb 90f 87f
6:06pm 18 24 mph 1009.9mb 90f 87f
6:00pm 18 23 mph 1009.9mb 90f 87f
5:48pm 22 23 mph 1009.9mb 90f 87f
5:42pm 21 24 mph 1010mb 90f 87f
5:36pm 20 23 mph 1009.9mb 90f 88f
5:30pm 21 24 mph 1009.9mb 90f 87f
5:24pm 21 24 mph 1009.9mb 90f 87f
5:18pm 22 25 mph 1010mb 90f 87f
5:12pm 20 24 mph 1010.1mb 90f 87f
5:06pm 21 24 mph 1010.1mb 90f 87f
5:00pm 21 24 mph 1010.1mb 90f 87f
4:54pm 20 25 mph 1010.2mb 90f 87f
4:48pm 21 24 mph 1010.4mb 90f 87f
4:42pm 21 24 mph 1010.4mb 90f 87f
4:36pm 21 24 mph 1010.5mb 90f 87f
4:30pm 20 25 mph 1010.5mb 90f 87f
4:24pm 20 24 mph 1010.5mb 89f 87f
4:18pm 21 23 mph 1010.6mb 89f 87f
4:12pm 21 24 mph 1010.6mb 89f 87f
4:06pm 20 24 mph 1010.6mb 89f 87f
4:00pm 21 24 mph 1010.7mb 89f 87f
3:54pm 22 24 mph 1010.7mb 89f 87f
3:48pm 21 23 mph 1010.7mb 89f 88f
3:42pm 22 24 mph 1010.8mb 89f 87f
3:36pm 22 25 mph 1010.8mb 89f 87f
3:30pm 22 26 mph 1010.9mb 89f 87f
3:24pm 18 23 mph 1010.9mb 89f 87f
3:18pm 20 25 mph 1011mb 89f 88f
3:12pm 20 23 mph 1011.1mb 89f 87f
3:06pm 22 25 mph 1011.1mb 89f 88f
3:00pm 20 24 mph 1011.2mb 89f 88f
2:54pm 21 23 mph 1011.3mb 89f 88f
2:48pm 20 23 mph 1011.3mb 88f 87f
2:42pm 18 22 mph 1011.5mb 88f 87f
2:36pm 17 22 mph 1011.6mb 88f 87f
2:30pm 20 22 mph 1011.6mb 88f 87f
2:24pm 18 22 mph 1011.7mb 88f 87f
2:18pm 18 24 mph 1011.7mb 88f 87f
2:12pm 18 21 mph 1011.8mb 88f 87f
2:06pm 18 24 mph 1011.9mb 88f 87f
2:00pm 15 21 mph 1011.9mb 88f 87f
1:54pm 18 21 mph 1012mb 88f 87f
1:48pm 17 21 mph 1012.1mb 88f 87f
1:42pm 16 18 mph 1012.2mb 88f 87f
1:36pm 16 21 mph 1012.3mb 88f 87f
1:30pm 14 18 mph 1012.4mb 87f 87f
1:24pm 14 17 mph 1012.4mb 87f 87f
1:18pm 15 18 mph 1012.5mb 87f 87f
1:12pm 16 17 mph 1012.6mb 87f 87f
1:06pm 16 18 mph 1012.6mb 87f 87f
1:00pm 17 18 mph 1012.5mb 87f 87f
12:54pm 17 20 mph 1012.5mb 87f 87f
12:48pm 16 17 mph 1012.6mb 87f 86f
12:42pm 15 17 mph 1012.7mb 87f 86f
12:36pm 15 16 mph 1012.7mb 87f 86f
12:30pm 14 18 mph 1012.8mb 87f 86f
12:24pm 15 17 mph 1012.8mb 87f 86f
12:18pm 16 18 mph 1012.8mb 86f 86f
12:12pm 15 17 mph 1012.8mb 86f 86f
12:06pm 15 18 mph 1012.8mb 86f 86f
12:00pm 16 17 mph 1012.9mb 86f 86f
11:54am 15 17 mph 1013mb 86f 86f
11:48am 15 17 mph 1013mb 86f 86f
11:42am 15 17 mph 1012.9mb 86f 86f
11:36am 15 17 mph 1012.9mb 86f 86f
11:30am 13 16 mph 1012.9mb 86f 86f
11:24am 14 15 mph 1012.8mb 86f 86f
11:18am 14 16 mph 1012.8mb - 86f
11:12am 14 17 mph 1012.8mb - 86f
11:06am 16 18 mph 1012.8mb - 86f
11:00am 14 16 mph 1012.8mb 85f 86f
10:54am 14 16 mph 1012.8mb 85f 86f
10:48am 14 17 mph 1012.7mb 85f 86f
10:42am 15 17 mph 1012.7mb 85f 86f
10:36am 14 17 mph 1012.6mb 85f 86f
10:30am 15 16 mph 1012.6mb 85f 86f
10:24am 14 16 mph 1012.6mb 85f 85f
10:18am 14 16 mph 1012.5mb 85f 85f
10:12am 14 16 mph 1012.4mb 85f 85f
10:06am 13 15 mph 1012.4mb 85f 85f
10:00am 14 16 mph 1012.4mb 85f 85f
9:54am 15 16 mph 1012.4mb 84f 85f
9:48am 14 15 mph 1012.3mb 84f 85f
9:42am 14 16 mph 1012.3mb 84f 85f
9:36am 14 16 mph 1012.3mb 84f 85f
9:30am 14 17 mph 1012.2mb 84f 85f
9:24am 15 18 mph 1012.1mb 84f 85f
9:18am 15 18 mph 1011.9mb 84f 85f
9:12am 16 18 mph 1011.9mb 84f 85f
9:06am 16 18 mph 1011.8mb 84f 85f
9:00am 16 18 mph 1011.8mb 84f 85f
8:54am 15 20 mph 1011.8mb 84f 85f
8:48am 16 20 mph 1011.7mb 84f 85f
8:42am 17 20 mph 1011.7mb 84f 85f
8:36am 16 20 mph 1011.7mb 84f 85f
8:30am 17 20 mph 1011.6mb 84f 85f
8:24am 16 20 mph 1011.6mb 84f 85f
8:18am 17 21 mph 1011.6mb 84f 85f
8:12am 18 21 mph 1011.5mb 84f 85f
8:06am 18 22 mph 1011.4mb 84f 85f
8:00am 17 20 mph 1011.3mb 84f 85f
7:54am 16 20 mph 1011.3mb 84f 85f
7:48am 17 21 mph 1011.3mb 84f 85f
7:42am 17 22 mph 1011.2mb 84f 85f
7:36am 18 21 mph 1011.2mb 84f 85f
7:30am 17 20 mph 1011.2mb 84f 85f
7:24am 18 21 mph 1011.1mb 84f 85f
7:18am 18 21 mph 1011mb 84f 85f
7:12am 18 22 mph 1011mb 84f 85f
7:06am 20 22 mph 1011mb 84f 85f
7:00am 18 22 mph 1011mb 84f 85f
6:54am 20 21 mph 1011mb 85f 85f
6:48am 20 22 mph 1011mb 85f 85f
6:42am 17 22 mph 1011mb 85f 85f
6:36am 18 21 mph 1010.9mb 85f 85f
6:30am 18 22 mph 1010.9mb 85f 85f
6:24am 18 22 mph 1010.9mb 85f 85f
6:18am 17 21 mph 1010.9mb 85f 85f
6:12am 18 22 mph 1010.9mb 85f 85f
6:06am 20 23 mph 1010.9mb 85f 85f
6:00am 20 23 mph 1010.9mb 85f 85f
5:54am 18 22 mph 1010.9mb 85f 85f
5:48am 16 21 mph 1010.9mb 85f 85f
5:42am 18 22 mph 1010.9mb 85f 85f
5:36am 17 22 mph 1010.8mb 85f 85f
5:30am 20 22 mph 1010.7mb 85f 85f
5:24am 20 22 mph 1010.6mb 85f 85f
5:18am 18 23 mph 1010.6mb 85f 85f
5:12am 21 24 mph 1010.5mb 85f 85f
5:06am 20 23 mph 1010.6mb 85f 85f
5:00am 22 23 mph 1010.5mb 85f 85f
4:54am 18 22 mph 1010.6mb 85f 85f
4:48am 20 23 mph 1010.6mb 85f 85f
4:42am 21 24 mph 1010.6mb 85f 85f
4:36am 17 21 mph 1010.6mb 85f 85f
4:30am 20 22 mph 1010.6mb 85f 85f
4:24am 18 22 mph 1010.6mb 85f 85f
4:18am 17 21 mph 1010.7mb 85f 85f
4:12am 17 20 mph 1010.7mb 85f 85f
4:06am 18 22 mph 1010.6mb 85f 85f
4:00am 18 22 mph 1010.5mb 85f 85f
3:54am 17 21 mph 1010.6mb 85f 85f
3:48am 18 22 mph 1010.7mb 85f 85f
3:42am 17 21 mph 1010.7mb 86f 85f
3:36am 17 20 mph 1010.8mb 86f 85f
3:30am 18 22 mph 1010.7mb 86f 85f
3:24am 16 22 mph 1010.7mb 86f 85f
3:18am 16 18 mph 1010.8mb 86f 85f
3:12am 16 21 mph 1010.8mb 86f 85f
3:06am 17 18 mph 1010.8mb 86f 85f
3:00am 16 20 mph 1010.9mb 86f 85f
2:54am 16 22 mph 1010.9mb 86f 85f
2:48am 18 22 mph 1010.8mb 86f 85f
2:42am 20 23 mph 1010.8mb 86f 85f
2:36am 20 22 mph 1010.8mb 86f 85f
2:30am 20 23 mph 1010.8mb 86f 85f
2:24am 20 22 mph 1010.9mb 86f 85f
2:18am 20 22 mph 1011mb 86f 85f
2:12am 18 23 mph 1011mb 86f 85f
2:06am 16 24 mph 1011mb 86f 85f
2:00am 20 23 mph 1011mb 86f 85f
1:54am 21 23 mph 1010.9mb 86f 85f
1:48am 16 22 mph 1010.9mb 86f -
1:42am 18 21 mph 1010.9mb 86f -
1:36am 16 20 mph 1010.9mb 86f -
1:30am 14 18 mph 1010.9mb 86f 85f
1:24am 14 17 mph 1011mb 86f 85f
1:18am 16 21 mph 1011mb 87f 85f
1:12am 16 20 mph 1011mb 87f 85f
1:06am 15 18 mph 1011.1mb 87f 85f
1:00am 13 16 mph 1011.1mb 87f 85f
12:54am 13 16 mph 1011.1mb 87f 85f
12:48am 14 17 mph 1011.2mb 87f 85f
12:42am 14 17 mph 1011.2mb 87f 85f
12:36am 15 17 mph 1011.2mb 87f 85f
12:30am 13 16 mph 1011.2mb 87f 85f
12:24am 10 16 mph 1011.3mb 87f 85f
12:18am 13 15 mph 1011.3mb 87f 85f
12:12am 13 15 mph 1011.3mb 87f 85f
12:06am 14 17 mph 1011.2mb 87f 85f
12:00am 14 17 mph 1011.2mb 87f 85f
Mon 08/14 11:54pm 15 18 mph 1011.1mb 87f 85f
11:48pm 15 17 mph 1011.1mb 87f 85f
11:42pm 15 20 mph 1011.1mb 87f 85f
11:36pm 16 18 mph 1011.1mb 87f 85f
11:30pm 14 18 mph 1011.1mb 87f 85f
11:24pm 14 15 mph 1011.1mb 87f 85f
11:18pm 13 16 mph 1011.1mb 87f 85f
11:12pm 11 16 mph 1011.1mb 87f 85f
11:06pm 13 17 mph 1011.1mb 87f 85f
11:00pm 15 17 mph 1010.9mb 87f 85f
10:54pm 13 17 mph 1010.9mb 87f 85f
10:48pm 13 16 mph 1010.9mb 87f 85f
10:42pm 13 16 mph 1010.9mb 88f 85f
10:36pm 13 16 mph 1010.8mb 88f 85f
10:30pm 14 17 mph 1010.7mb 88f 85f
10:24pm 15 17 mph 1010.7mb 88f 85f
10:18pm 15 17 mph 1010.6mb 88f 85f
10:12pm 13 16 mph 1010.6mb 88f 85f
10:06pm 14 17 mph 1010.6mb 88f 85f
10:00pm 13 16 mph 1010.6mb 88f 85f
9:54pm 13 15 mph 1010.4mb 88f 85f
9:48pm 13 16 mph 1010.3mb 88f 85f
9:42pm 13 17 mph 1010.2mb 88f 85f
9:36pm 13 16 mph 1010.2mb 88f 85f
9:30pm 14 18 mph 1010.1mb 88f 85f
9:24pm 14 17 mph 1010.1mb 89f 85f
9:18pm 14 17 mph 1010mb 89f 85f
9:12pm 14 17 mph 1009.9mb 89f 85f
9:06pm 14 17 mph 1009.9mb 89f 85f
9:00pm 14 17 mph 1009.8mb 89f 85f
8:54pm 14 17 mph 1009.8mb 89f 86f
8:48pm 13 16 mph 1009.8mb 89f 86f
8:42pm 13 17 mph 1009.7mb 89f 86f
8:36pm 13 20 mph 1009.7mb 89f 86f
8:30pm 16 20 mph 1009.6mb 89f 86f
8:24pm 14 18 mph 1009.6mb 89f 86f
8:18pm 14 18 mph 1009.7mb 89f 86f
8:12pm 15 18 mph 1009.7mb 89f 86f
8:06pm 16 20 mph 1009.6mb 89f 86f
8:00pm 15 18 mph 1009.6mb 89f 86f
7:54pm 14 18 mph 1009.6mb 89f 86f
7:48pm 14 20 mph 1009.6mb 89f 86f
6:54pm 21 23 mph 1009.4mb 90f 87f
6:48pm 17 23 mph 1009.4mb 90f 87f
6:42pm 22 24 mph 1009.4mb 90f 87f
6:36pm 20 24 mph 1009.4mb 90f 87f
6:30pm 16 22 mph 1009.5mb 90f 87f
6:24pm 16 21 mph 1009.5mb 90f 87f
6:18pm 18 22 mph 1009.5mb 90f 87f
6:12pm 20 22 mph 1009.5mb 90f 87f
6:06pm 20 23 mph 1009.6mb 90f 87f
6:00pm 15 22 mph 1009.7mb 90f 88f
5:54pm 16 23 mph 1009.7mb 90f 87f
5:48pm 21 24 mph 1009.7mb 90f 87f
5:42pm 18 22 mph 1009.8mb 90f 87f
5:36pm 18 25 mph 1009.8mb 90f 87f
5:30pm 18 22 mph 1009.8mb 90f 87f
5:24pm 21 24 mph 1009.8mb 90f 87f
5:18pm 17 23 mph 1009.9mb 90f 87f
5:12pm 17 23 mph 1009.9mb 90f 87f
5:06pm 17 21 mph 1009.9mb 90f 87f
5:00pm 20 23 mph 1009.8mb 90f 87f
4:54pm 18 22 mph 1009.7mb 90f 87f
4:48pm 18 21 mph 1009.8mb 90f 87f
4:42pm 20 22 mph 1009.8mb 90f 87f
4:36pm 16 24 mph 1009.9mb 90f 87f
4:30pm 18 24 mph 1009.8mb 90f 87f
4:24pm 20 24 mph 1009.8mb 90f 87f
4:18pm 17 23 mph 1009.9mb 90f 87f
4:12pm 18 24 mph 1010mb 90f 87f
4:06pm 20 24 mph 1010mb 90f 87f
4:00pm 21 23 mph 1010mb 90f 87f
3:54pm 18 24 mph 1010.1mb 90f 87f
3:48pm 17 22 mph 1010.1mb 90f 87f
3:42pm 20 22 mph 1010.2mb 89f 87f
3:36pm 16 18 mph 1010.4mb 89f 87f
3:30pm 16 21 mph 1010.4mb 89f 87f
3:24pm 14 21 mph 1010.5mb 89f 87f
3:18pm 16 21 mph 1010.4mb 89f 87f
3:12pm 15 20 mph 1010.5mb 89f 87f
3:06pm 15 18 mph 1010.6mb 89f 87f
3:00pm 14 18 mph 1010.7mb 89f 87f
2:54pm 14 18 mph 1010.8mb 89f 87f
2:48pm 14 17 mph 1010.9mb 89f 87f
2:42pm 15 18 mph 1010.9mb 89f 87f
2:36pm 15 17 mph 1010.9mb 89f 87f
2:30pm 15 17 mph 1011.1mb 89f 87f
2:24pm 15 17 mph 1011.2mb 89f 87f
2:18pm 14 18 mph 1011.3mb 89f 87f
2:12pm 15 16 mph 1011.3mb 89f 86f
2:06pm 15 18 mph 1011.5mb 88f 87f
2:00pm 14 17 mph 1011.6mb 88f 86f
1:54pm 15 16 mph 1011.7mb 88f 87f
1:48pm 14 16 mph 1011.7mb 88f 86f
1:42pm 14 16 mph 1011.8mb 88f 87f
1:36pm 14 16 mph 1011.8mb 88f 86f
1:30pm 13 15 mph 1011.8mb 88f 86f
1:24pm 14 15 mph 1011.9mb 88f 86f
1:18pm 14 16 mph 1011.9mb 88f 87f
1:12pm 14 16 mph 1011.9mb 88f 86f
1:06pm 15 16 mph 1012mb 87f 86f
1:00pm 13 15 mph 1012mb 87f 86f
12:54pm 14 16 mph 1012mb 87f 86f
12:48pm 14 17 mph 1012mb 87f 86f
12:42pm 14 16 mph 1012.1mb 87f 86f
12:36pm 14 17 mph 1012.1mb 87f 86f
12:30pm 14 17 mph 1012mb 87f 86f
12:24pm 15 17 mph 1012.1mb 87f 86f
12:18pm 14 17 mph 1012.2mb 87f 86f
12:12pm 14 16 mph 1012.2mb 86f 86f
12:06pm 15 17 mph 1012.2mb 86f 86f
12:00pm 15 17 mph 1012.2mb 86f 86f
11:54am 15 17 mph 1012.3mb 86f 86f
11:48am 14 17 mph 1012.4mb 86f 86f
11:42am 14 17 mph 1012.4mb 86f 86f
11:36am 11 15 mph 1012.5mb 86f 86f
11:30am 13 16 mph 1012.6mb 86f 86f
11:24am 13 15 mph 1012.6mb 86f 86f
11:18am 14 16 mph 1012.6mb 86f 86f
11:12am 14 16 mph 1012.7mb 86f 86f
11:06am 14 17 mph 1012.7mb 85f 85f
11:00am 14 16 mph 1012.7mb 85f 86f
10:54am 13 16 mph 1012.6mb 85f 85f
10:48am  -  mph 1012.5mb 85f 85f
10:42am  -  mph 1012.4mb 85f 85f
10:36am  -  mph 1012.4mb 85f 86f
10:30am 14 17 mph 1012.4mb 85f 85f
10:24am 14 16 mph 1012.4mb 85f 85f
10:18am 16 18 mph 1012.3mb 85f 85f
10:12am 15 17 mph 1012.2mb 85f 85f
10:06am 15 17 mph 1012.2mb 85f 85f
10:00am 15 18 mph 1012.1mb 85f 85f
9:54am 16 18 mph 1012.1mb 85f 85f
9:48am 15 18 mph 1012.2mb 85f 85f
9:42am 16 20 mph 1012.2mb 85f 85f
9:36am 16 20 mph 1012mb 85f 85f
9:30am 15 21 mph 1012.1mb 85f 85f
9:24am 17 20 mph 1012mb 85f 85f
9:18am 16 18 mph 1012mb 85f 85f
9:12am 16 18 mph 1011.9mb 85f 85f
9:06am 16 20 mph 1012mb 85f 85f
9:00am 17 21 mph 1012mb 85f 85f
8:54am 18 21 mph 1011.9mb 85f 85f
8:48am 18 22 mph 1011.8mb 85f 85f
8:42am 17 21 mph 1011.9mb 85f 85f
8:36am 17 20 mph 1011.9mb 85f 85f
8:30am 16 20 mph 1011.9mb 85f 85f
8:24am 18 21 mph 1011.8mb 85f 85f
8:18am 17 21 mph 1011.8mb 85f 85f
8:12am 16 18 mph 1011.7mb 85f 85f
8:06am 17 18 mph 1011.6mb 85f 85f
8:00am 17 18 mph 1011.6mb 85f 85f
7:54am 17 21 mph 1011.5mb 85f 85f
7:48am 18 20 mph 1011.6mb 85f 85f
7:42am 16 21 mph 1011.6mb 85f 85f
7:36am 17 21 mph 1011.7mb 85f 85f
7:30am 18 21 mph 1011.7mb 85f 85f
7:24am 16 22 mph 1011.7mb 85f 85f
7:18am 17 22 mph 1011.8mb 85f 85f
7:12am 17 20 mph 1011.8mb 85f 85f
7:06am 17 21 mph 1011.7mb 85f 85f
7:00am 20 22 mph 1011.6mb 85f 85f
6:54am 18 22 mph 1011.6mb 85f 85f
6:48am 18 22 mph 1011.7mb 85f 85f
6:42am 17 22 mph 1011.6mb 85f 85f
6:36am 18 23 mph 1011.5mb 85f 85f
6:30am 20 22 mph 1011.5mb 85f 85f
6:24am 18 23 mph 1011.4mb 85f 85f
6:18am 17 21 mph 1011.4mb 85f 85f
6:12am 17 21 mph 1011.5mb 85f 85f
6:06am 20 24 mph 1011.5mb 85f 85f
6:00am 23 25 mph 1011.4mb 85f 85f
5:54am 20 24 mph 1011.4mb 85f 85f
5:48am 21 22 mph 1011.4mb 85f 85f
5:42am 18 22 mph 1011.4mb 85f 85f
5:36am 20 24 mph 1011.4mb 85f 85f
5:30am 22 24 mph 1011.4mb 85f 85f
5:24am 21 25 mph 1011.4mb 85f 86f
5:18am 22 25 mph 1011.3mb 85f 86f
5:12am 21 23 mph 1011.3mb 85f 85f
5:06am 20 24 mph 1011.3mb 85f 85f
5:00am 22 28 mph 1011.2mb 85f 86f
4:54am 22 25 mph 1011.2mb 85f 85f
4:48am 21 24 mph 1011.3mb 86f 86f
4:42am 23 26 mph 1011.2mb 86f 86f
4:36am 22 26 mph 1011.2mb 86f 86f
4:30am 22 25 mph 1011.3mb 86f 86f
4:24am 21 26 mph 1011.3mb 86f 86f
4:18am 22 25 mph 1011.1mb 86f 85f
4:12am 21 24 mph 1011mb 86f 86f
4:06am 23 26 mph 1011mb 86f 86f
4:00am 20 26 mph 1011.1mb 86f 86f
3:54am 23 26 mph 1011.1mb 86f 86f
3:48am 23 25 mph 1011.2mb 86f 86f
3:42am 22 26 mph 1011.3mb 86f 86f
3:36am 20 24 mph 1011.3mb 86f 86f
3:30am 21 25 mph 1011.3mb 86f 86f
3:24am 22 25 mph 1011.1mb 86f 86f
3:18am 22 26 mph 1010.9mb 86f 86f
3:12am 23 25 mph 1011mb 86f 86f
3:06am 21 26 mph 1011mb 86f 86f
3:00am 24 29 mph 1011mb 86f 86f
2:54am 23 26 mph 1010.9mb 86f 86f
2:48am 22 28 mph 1011mb 86f 86f
2:42am 24 29 mph 1010.9mb 87f 86f
2:36am 24 26 mph 1010.9mb 87f 86f
2:30am 24 28 mph 1010.8mb 87f 86f
2:24am 22 24 mph 1010.9mb 87f 85f
2:18am 22 26 mph 1010.9mb 87f 86f
2:12am 22 24 mph 1011mb 87f 86f
2:06am 21 25 mph 1010.9mb 87f 85f
2:00am 21 26 mph 1010.9mb 87f 86f
1:54am 23 26 mph 1011mb 87f 86f
1:48am 22 25 mph 1011.1mb 87f -
1:42am 22 24 mph 1011.1mb 87f -
1:36am 21 26 mph 1011mb 87f -
1:30am 22 26 mph 1010.9mb 87f 86f
1:24am 22 26 mph 1011mb 87f 86f
1:18am 23 28 mph 1011.1mb 87f 86f
1:12am 23 26 mph 1011.1mb 87f 86f
1:06am 24 28 mph 1011.2mb 87f 86f
1:00am 23 28 mph 1011.2mb 87f 86f
12:54am 23 29 mph 1011.1mb 87f 86f
12:48am 20 26 mph 1011.2mb 87f 86f
12:42am 22 28 mph 1011.2mb 87f 86f
12:36am 20 25 mph 1011.2mb 87f 86f
12:30am 18 25 mph 1011.3mb 88f 86f
12:24am 22 26 mph 1011.3mb 88f 86f
12:18am 22 25 mph 1011.4mb 88f 86f
12:12am 20 26 mph 1011.5mb 88f 86f
12:06am 18 24 mph 1011.6mb 88f 86f
12:00am 17 24 mph 1011.5mb 88f 86f
Sun 08/13 11:54pm 18 24 mph 1011.6mb 88f 86f
11:48pm 20 25 mph 1011.5mb 88f 86f
11:42pm 18 23 mph 1011.5mb 88f 86f
11:36pm 20 22 mph 1011.6mb 88f 86f
11:30pm 18 22 mph 1011.7mb 88f 86f
11:24pm 15 20 mph 1011.9mb 88f 86f
11:18pm 17 22 mph 1011.9mb 88f 86f
11:12pm 17 21 mph 1011.9mb 88f 86f
11:06pm 16 20 mph 1012mb 88f 86f
11:00pm 16 22 mph 1012mb 89f 86f
10:54pm 17 22 mph 1011.9mb 89f 86f
10:48pm 15 22 mph 1011.9mb 89f 86f
10:42pm 17 20 mph 1011.8mb 89f 86f
10:36pm 16 21 mph 1011.8mb 89f 86f
10:30pm 20 22 mph 1011.9mb 89f 86f
10:24pm 13 16 mph 1011.9mb 89f 86f
10:18pm 13 18 mph 1012mb 89f 86f
10:12pm 15 20 mph 1011.9mb 89f 86f
10:06pm 17 21 mph 1011.8mb 89f 86f
10:00pm 15 21 mph 1011.9mb 89f 86f
9:54pm 17 22 mph 1011.7mb 89f 86f
9:48pm 17 22 mph 1011.7mb 89f 86f
9:42pm 17 21 mph 1011.6mb 89f 86f
9:36pm 16 20 mph 1011.7mb 89f 86f
9:30pm 16 20 mph 1011.6mb 89f 86f
9:24pm 15 18 mph 1011.6mb 89f 86f
9:18pm 15 20 mph 1011.5mb 89f 86f
9:12pm 16 20 mph 1011.3mb 89f 86f
9:06pm 16 18 mph 1011.3mb 89f 86f
9:00pm 18 21 mph 1011.3mb 89f 86f
8:54pm 14 22 mph 1011.3mb 89f 86f
8:48pm 16 21 mph 1011.2mb 89f 86f
8:42pm 16 21 mph 1011.2mb 90f 86f
8:36pm 13 20 mph 1011.2mb 90f 86f
8:30pm 13 18 mph 1011.2mb 90f 86f
8:24pm 15 18 mph 1011.1mb 90f 86f
8:18pm 14 20 mph 1011mb 90f 86f
8:12pm 15 18 mph 1010.9mb 90f 86f
8:06pm 16 20 mph 1010.9mb 90f 86f
8:00pm 14 23 mph 1010.9mb 90f 86f
7:54pm 14 21 mph 1010.9mb 90f 86f
7:48pm 18 22 mph 1010.8mb 90f 87f
7:42pm 17 22 mph 1010.8mb 90f 87f
7:36pm 17 22 mph 1010.8mb 90f 86f
7:30pm 17 22 mph 1010.8mb 90f 87f
7:24pm 17 20 mph 1010.7mb 90f 87f
7:18pm 15 20 mph 1010.7mb 90f 87f
7:12pm 15 20 mph 1010.7mb 90f 87f
7:06pm 16 21 mph 1010.8mb 90f 87f
7:00pm 14 22 mph 1010.8mb 90f 88f
6:54pm 17 22 mph 1010.8mb 90f 87f
6:48pm 16 21 mph 1010.8mb 90f 87f
6:42pm 17 21 mph 1010.7mb 91f 87f
6:36pm 15 21 mph 1010.8mb 91f 88f
6:30pm 17 22 mph 1010.8mb 91f 87f
6:24pm 20 22 mph 1010.8mb 91f 87f
6:18pm 17 22 mph 1010.9mb 91f 88f
6:12pm 18 22 mph 1010.9mb 91f 87f
6:06pm 18 25 mph 1011mb 91f 87f
6:00pm 20 22 mph 1010.9mb 91f 87f
5:54pm 17 21 mph 1011mb 91f 88f
5:48pm 17 21 mph 1011mb 91f 88f
5:42pm 18 22 mph 1011mb 91f 88f
5:36pm 17 22 mph 1011mb 91f 88f
5:30pm 17 21 mph 1011.1mb 91f 88f
5:24pm 16 21 mph 1011.2mb 91f 88f
5:18pm 17 22 mph 1011.1mb 91f 87f
5:12pm 16 20 mph 1011.2mb 91f 88f
5:06pm 17 20 mph 1011.2mb 91f 87f
5:00pm 16 20 mph 1011.3mb 91f 87f
4:54pm 17 20 mph 1011.4mb 91f 87f
4:48pm 16 18 mph 1011.4mb 91f 88f
4:42pm 17 20 mph 1011.5mb 91f 87f
4:36pm 16 21 mph 1011.5mb 91f 87f
4:30pm 16 20 mph 1011.6mb 91f 87f
4:24pm 17 20 mph 1011.7mb 91f 87f
4:18pm 16 20 mph 1011.8mb 90f 87f
4:12pm 15 20 mph 1011.9mb 90f 87f
4:06pm 15 18 mph 1011.9mb 90f 87f
4:00pm 16 20 mph 1012mb 90f 87f
3:54pm 15 18 mph 1012.1mb 90f 87f
3:48pm 16 20 mph 1012mb 90f 87f
3:42pm 14 20 mph 1012.1mb 90f 87f
3:36pm 18 21 mph 1012.1mb 90f 87f
3:30pm 17 20 mph 1012.1mb 90f 87f
3:24pm 16 18 mph 1012.2mb 90f 87f
3:18pm 16 20 mph 1012.2mb 90f 87f
3:12pm 16 20 mph 1012.3mb 90f 87f
3:06pm 15 17 mph 1012.5mb 90f 87f
3:00pm 15 17 mph 1012.6mb 89f 87f
2:54pm 16 18 mph 1012.6mb 89f 87f
2:48pm 17 18 mph 1012.6mb 89f 87f
2:42pm 16 17 mph 1012.6mb 89f 87f
2:36pm 16 17 mph 1012.7mb 89f 87f
2:30pm 14 17 mph 1012.8mb 89f 87f
2:24pm 14 16 mph 1012.9mb 89f 87f
2:18pm 14 16 mph 1013.1mb 89f 87f
2:12pm 15 17 mph 1013.2mb 89f 87f
2:06pm 15 16 mph 1013.3mb 89f 87f
2:00pm 16 17 mph 1013.3mb 89f 87f
1:54pm 15 20 mph 1013.4mb 89f 87f
1:48pm 15 18 mph 1013.4mb 89f 87f
1:42pm 16 18 mph 1013.4mb 88f 87f
1:36pm 15 17 mph 1013.5mb 88f 87f
1:30pm 14 16 mph 1013.6mb 88f 87f
1:24pm 13 15 mph 1013.8mb 88f 87f
1:18pm 14 16 mph 1013.8mb 88f 87f
1:12pm 14 16 mph 1013.8mb 88f 87f
1:06pm 13 15 mph 1013.9mb 88f 87f
1:00pm 11 15 mph 1014mb 88f 87f
12:54pm 13 15 mph 1013.9mb 88f 87f
12:48pm 11 15 mph 1014mb 87f 87f
12:42pm 14 16 mph 1014mb 87f 87f
12:36pm 15 17 mph 1014mb 87f 86f
12:30pm 14 17 mph 1014.1mb 87f 87f
12:24pm 15 17 mph 1014.1mb 87f 86f
12:18pm 15 17 mph 1014.2mb 87f 86f
12:12pm 15 16 mph 1014.2mb 87f 86f
12:06pm 15 18 mph 1014.2mb 87f 86f
12:00pm 15 17 mph 1014.1mb 87f 86f
11:54am 16 17 mph 1014.1mb 87f 86f
11:48am 16 18 mph 1014.1mb 87f 87f
11:42am 15 17 mph 1014.1mb 87f 86f
11:36am 15 18 mph 1014mb 87f 87f
11:30am 15 18 mph 1013.9mb 87f 87f
11:24am 17 21 mph 1013.8mb 87f 86f
11:18am 17 20 mph 1013.9mb 86f 86f
11:12am 16 20 mph 1013.9mb 86f 86f
11:06am 17 20 mph 1013.9mb 86f 86f
11:00am 16 18 mph 1013.8mb 86f 86f
10:54am 17 20 mph 1013.8mb 86f 86f
10:48am 14 18 mph 1013.9mb 86f 86f
10:42am 16 20 mph 1013.9mb 86f 86f
10:36am 16 20 mph 1013.9mb 86f 86f
10:30am 17 20 mph 1014mb 86f 86f
10:24am 18 22 mph 1014mb 86f 86f
10:18am 17 20 mph 1013.9mb 86f 86f
10:12am 16 20 mph 1013.8mb 86f 86f
10:06am 15 20 mph 1013.8mb 86f 86f
10:00am 17 20 mph 1013.8mb 86f 86f
9:54am 15 17 mph 1013.9mb 85f 86f
9:48am 16 21 mph 1013.9mb 85f 86f
9:42am 17 20 mph 1013.8mb 85f 86f
9:36am 17 18 mph 1013.8mb 85f 86f
9:30am 16 18 mph 1013.8mb 85f 86f
9:24am 16 21 mph 1013.7mb 85f 86f
9:18am 15 18 mph 1013.6mb 85f 86f
9:12am 15 20 mph 1013.6mb 85f 86f
9:06am 16 18 mph 1013.6mb 85f 85f
9:00am 14 17 mph 1013.5mb 85f 85f
8:54am 16 20 mph 1013.5mb 85f 85f
8:48am 16 20 mph 1013.5mb 85f 86f
8:42am 16 18 mph 1013.6mb 85f 85f
8:36am 16 20 mph 1013.6mb 85f 85f
8:30am 17 20 mph 1013.5mb 85f 85f
8:24am 18 20 mph 1013.3mb 85f 85f
8:18am 17 20 mph 1013.3mb 85f 86f
8:12am 17 22 mph 1013.2mb 85f 86f
8:06am 18 21 mph 1013.1mb 85f 85f
8:00am 18 21 mph 1013.1mb 85f 85f
7:54am 18 21 mph 1013mb 85f 85f
7:48am 20 22 mph 1013mb 85f 85f
7:42am 17 22 mph 1012.9mb 86f 85f
7:36am 18 21 mph 1012.9mb 86f 85f
7:30am 20 22 mph 1013mb 86f 85f
7:24am 17 21 mph 1012.9mb 86f 85f
7:18am 17 22 mph 1012.9mb 86f 85f
7:12am 16 21 mph 1012.8mb 86f 85f
7:06am 16 20 mph 1012.8mb 86f 85f
7:00am 17 21 mph 1012.7mb 86f 85f
6:54am 17 20 mph 1012.6mb 86f 85f
6:48am 17 20 mph 1012.7mb 86f 85f
6:42am 18 21 mph 1012.7mb 86f 85f
6:36am 16 20 mph 1012.6mb 86f 85f
6:30am 20 22 mph 1012.6mb 86f 85f
6:24am 17 21 mph 1012.7mb 86f 85f
6:18am 17 20 mph 1012.8mb 86f 85f
6:12am 16 18 mph 1012.9mb 86f 85f
6:06am 16 20 mph 1012.9mb 86f 86f
6:00am 17 21 mph 1012.8mb 86f 85f
5:54am 17 20 mph 1012.7mb 86f 85f
5:48am 17 21 mph 1012.6mb 86f 85f
5:42am 18 21 mph 1012.6mb 86f 85f
5:36am 16 21 mph 1012.6mb 86f 86f
5:30am 17 21 mph 1012.6mb 86f 85f
5:24am 20 22 mph 1012.4mb 86f 85f
5:18am 18 22 mph 1012.4mb 87f 86f
5:12am 20 23 mph 1012.2mb 87f 85f
5:06am 18 23 mph 1012.1mb 87f 85f
5:00am 21 23 mph 1012mb 87f 85f
4:54am 21 23 mph 1012mb 87f 85f
4:48am 21 25 mph 1012.1mb 87f 86f
4:42am 21 24 mph 1012.1mb 87f 86f
4:36am 20 23 mph 1012.2mb 87f 86f
4:30am 20 24 mph 1012.2mb 87f 85f
4:24am 21 23 mph 1012.3mb 87f 86f
4:18am 20 22 mph 1012.4mb 87f 86f
4:12am 20 23 mph 1012.4mb 87f 86f
4:06am 18 21 mph 1012.4mb 87f 86f
4:00am 18 22 mph 1012.4mb 87f 86f
3:54am 18 22 mph 1012.5mb 87f 86f
3:48am 17 22 mph 1012.5mb 87f 86f
3:42am 20 23 mph 1012.5mb 87f 86f
3:36am 20 23 mph 1012.4mb 87f 85f
3:30am 20 23 mph 1012.3mb 87f 85f
3:24am 18 23 mph 1012.4mb 87f 86f
3:18am 20 23 mph 1012.4mb 87f 86f
3:12am 20 23 mph 1012.4mb 87f 86f
3:06am 21 24 mph 1012.5mb 87f 86f
3:00am 21 24 mph 1012.5mb 87f 86f
2:54am 20 23 mph 1012.5mb 88f 86f
2:48am 21 23 mph 1012.5mb 88f 86f
2:42am 20 23 mph 1012.7mb 88f 86f
2:36am 20 22 mph 1012.8mb 88f 86f
2:30am 18 22 mph 1012.9mb 88f 86f
2:24am 20 22 mph 1012.9mb 88f 86f
2:18am 17 21 mph 1013mb 88f 86f
2:12am 18 21 mph 1013mb 88f 86f
2:06am 16 21 mph 1013.2mb 88f 86f
2:00am 18 22 mph 1013.2mb 88f 86f
1:54am 17 21 mph 1013.2mb 88f 86f
1:48am 16 20 mph 1013.3mb 88f 86f
1:42am 15 20 mph 1013.2mb 88f 86f
1:36am 18 22 mph 1013.3mb 88f 86f
1:30am 20 23 mph 1013.2mb 88f 86f
1:24am 16 21 mph 1013.2mb 88f 86f
1:18am 17 22 mph 1013.3mb 88f 86f
1:12am 18 22 mph 1013.4mb 88f 86f
1:06am 18 21 mph 1013.5mb 89f 86f
12:42am 20 22 mph 1013.8mb 89f 86f
12:36am 15 18 mph 1013.9mb 89f 86f
12:30am 16 21 mph 1014mb 89f 86f
12:24am 14 18 mph 1014.1mb 89f 86f
12:18am 14 17 mph 1014.1mb 89f 86f
12:12am 14 16 mph 1014.1mb 89f 86f
12:06am 14 18 mph 1014.1mb 89f 86f
12:00am 17 21 mph 1014.1mb 89f 86f
Sat 08/12 11:54pm 16 20 mph 1014.1mb 89f 86f
11:48pm 15 18 mph 1014.1mb 89f 86f
11:42pm 16 21 mph 1014.1mb 89f 86f
11:36pm 15 21 mph 1014.2mb 89f 86f
11:30pm 11 15 mph 1014.2mb 89f 86f
11:24pm 13 15 mph 1014.3mb 89f 85f
11:18pm 13 16 mph 1014.1mb 89f 86f
11:12pm 13 15 mph 1014.1mb 89f 86f
11:06pm 11 15 mph 1014.1mb 89f 85f
11:00pm 14 15 mph 1014mb 89f 86f
10:54pm 10 16 mph 1014mb 89f 86f
10:48pm 14 17 mph 1013.9mb 90f 86f
10:42pm 13 16 mph 1013.8mb 90f 86f
10:36pm 11 15 mph 1013.6mb 90f 86f
10:30pm 13 18 mph 1013.6mb 90f 86f
10:24pm 14 18 mph 1013.5mb 90f 86f
10:18pm 17 21 mph 1013.2mb 90f 86f
10:12pm 15 22 mph 1013.2mb 90f 86f
10:06pm 16 20 mph 1013.2mb 90f 86f
10:00pm 14 17 mph 1013.3mb 90f 86f
9:54pm 14 20 mph 1013.1mb 90f 86f
9:48pm 16 21 mph 1013mb 90f 86f
9:42pm 16 20 mph 1013mb 90f 86f
9:36pm 16 18 mph 1013mb 90f 86f
9:30pm 17 22 mph 1012.9mb 90f 86f
9:24pm 17 20 mph 1012.9mb 90f 86f
9:18pm 15 20 mph 1012.9mb 90f 86f
9:12pm 17 20 mph 1012.9mb 90f 86f
9:06pm 16 20 mph 1012.9mb 91f 86f
9:00pm 15 17 mph 1012.9mb 91f 86f
8:54pm 14 17 mph 1013.1mb 91f 86f
8:48pm 11 14 mph 1013.1mb 91f 86f
8:42pm 13 17 mph 1013mb 91f 86f
8:36pm 14 17 mph 1012.9mb 91f 86f
8:30pm 17 20 mph 1012.8mb 91f 86f
8:24pm 15 17 mph 1012.7mb 91f 86f
8:18pm 15 17 mph 1012.6mb 91f 87f
8:12pm 15 17 mph 1012.6mb 91f 87f
8:06pm 17 20 mph 1012.6mb 91f 86f
8:00pm 15 18 mph 1012.6mb 91f 87f
7:54pm 14 18 mph 1012.6mb 91f 87f
7:48pm 14 18 mph 1012.4mb 91f 87f
7:42pm 16 20 mph 1012.4mb 91f 87f
7:36pm 16 20 mph 1012.4mb 91f 87f
7:30pm 15 20 mph 1012.5mb 91f 87f
7:24pm 15 20 mph 1012.5mb 91f 87f
7:18pm 15 20 mph 1012.6mb 91f 87f
7:12pm 16 20 mph 1012.7mb 91f 87f
7:06pm 17 21 mph 1012.6mb 91f 87f
7:00pm 15 20 mph 1012.6mb 91f 87f
6:54pm 15 20 mph 1012.7mb 91f 88f
6:48pm 15 20 mph 1012.6mb 92f 88f
6:42pm 17 21 mph 1012.6mb 92f 88f
6:36pm 15 18 mph 1012.7mb 92f 88f
6:30pm 18 21 mph 1012.7mb 92f 88f
6:24pm 15 20 mph 1012.8mb 92f 88f
6:18pm 17 20 mph 1012.8mb 92f 88f
6:12pm 14 20 mph 1012.9mb 92f 88f
6:06pm 15 21 mph 1012.9mb 92f 88f
6:00pm 16 20 mph 1012.9mb 92f 88f
5:54pm 15 21 mph 1013mb 92f 88f
5:48pm 15 20 mph 1013mb 92f 88f
5:42pm 15 20 mph 1013mb 92f 88f
5:36pm 15 18 mph 1013.1mb 92f 88f
5:30pm 16 18 mph 1013.1mb 92f 88f
5:24pm 14 20 mph 1013.2mb 92f 88f
5:18pm 16 20 mph 1013.3mb 92f 88f
5:12pm 16 20 mph 1013.3mb 92f 88f
5:06pm 16 18 mph 1013.2mb 92f 87f
5:00pm 15 20 mph 1013.3mb 92f 88f
4:54pm 16 20 mph 1013.3mb 92f 88f
4:48pm 16 20 mph 1013.3mb 92f 88f
4:42pm 15 20 mph 1013.3mb 92f 87f
4:36pm 15 20 mph 1013.4mb 92f 88f
4:30pm 14 18 mph 1013.4mb 92f 88f
4:24pm 14 18 mph 1013.4mb 92f 87f
4:18pm 16 18 mph 1013.4mb 92f 87f
4:12pm 15 18 mph 1013.5mb 91f 87f
4:06pm 14 18 mph 1013.5mb 91f 87f
4:00pm 14 20 mph 1013.6mb 91f 87f
3:54pm 16 18 mph 1013.7mb 91f 87f
3:48pm 15 17 mph 1013.8mb 91f 87f
3:42pm 15 18 mph 1013.8mb 91f 87f
3:36pm 15 18 mph 1013.9mb 91f 87f
3:30pm 15 17 mph 1014mb 91f 87f
3:24pm 15 17 mph 1014mb 91f 87f
3:18pm 16 18 mph 1014mb 91f 87f
3:12pm 14 18 mph 1014.1mb 91f 87f
3:06pm 14 17 mph 1014.1mb 91f 87f
3:00pm 14 17 mph 1014.1mb 91f 87f
2:54pm 15 17 mph 1014.2mb 91f 87f
2:48pm 13 17 mph 1014.3mb 91f 87f
2:42pm 14 16 mph 1014.3mb 90f 87f
2:36pm 14 17 mph 1014.4mb 90f 87f
2:30pm 14 15 mph 1014.4mb 90f 87f
2:24pm 14 16 mph 1014.4mb 90f 87f
2:18pm 15 17 mph 1014.6mb 90f 87f
2:12pm 15 18 mph 1014.7mb 90f 87f
2:06pm 15 18 mph 1014.8mb 90f 87f
2:00pm 15 18 mph 1014.7mb 90f 87f
1:54pm 16 17 mph 1014.8mb 90f 87f
1:48pm 16 18 mph 1014.8mb 90f 87f
1:42pm 15 18 mph 1014.7mb 90f 87f